When you browse on this site, cookies collect data to enhance your experience and personalize the content and advertising you see.
Visit our Privacy Policy to learn more. By continuing to use the site, you agree to this use of cookies and data.
  • în România
  • Lista ţărilor
  • Pe 7 zile
  • Temperatura apei
  • Hartă satelitară
  • Meteo pe hartă
  • Widget-uri
  • user-avatar
    Intrare

    Meteo pe oră la Luneville

    Astăzi, 20 Aprilie, Sâmbătă

    Timp Temperatura Precipitaţii Vânt Presiune Umiditate
    00:00 +14°C° 0 mm 2 m/s 748 mmHg 73%
    01:00 +13°C° 0 mm 2 m/s 748 mmHg 73%
    02:00 +12°C° 0 mm 2 m/s 748 mmHg 74%
    03:00 +12°C° 0 mm 2 m/s 748 mmHg 74%
    04:00 +12°C° 0 mm 2 m/s 748 mmHg 76%
    05:00 +12°C° 0 mm 2 m/s 748 mmHg 77%
    06:00 +12°C° 0 mm 2 m/s 748 mmHg 77%
    07:00 +14°C° 0 mm 3 m/s 748 mmHg 72%
    08:00 +17°C° 0 mm 3 m/s 748 mmHg 67%
    09:00 +19°C° 0 mm 4 m/s 748 mmHg 61%
    10:00 +20°C° 0 mm 4 m/s 748 mmHg 58%
    11:00 +21°C° 0 mm 5 m/s 748 mmHg 54%
    12:00 +22°C° 0 mm 5 m/s 748 mmHg 50%
    13:00 +22°C° 0 mm 5 m/s 747 mmHg 52%
    14:00 +22°C° 0 mm 5 m/s 747 mmHg 54%
    15:00 +22°C° 0 mm 4 m/s 747 mmHg 56%
    16:00 +20°C° 0 mm 4 m/s 746 mmHg 60%
    17:00 +18°C° 0 mm 4 m/s 746 mmHg 64%
    18:00 +17°C° 0 mm 4 m/s 746 mmHg 68%
    19:00 +14°C° 0 mm 3 m/s 746 mmHg 67%
    20:00 +13°C° 0 mm 3 m/s 746 mmHg 65%
    21:00 +12°C° 0 mm 3 m/s 746 mmHg 64%
    22:00 +11°C° 0 mm 3 m/s 746 mmHg 66%
    23:00 +10°C° 0 mm 3 m/s 746 mmHg 67%

    Mâine, 21 Aprilie, Duminică

    Timp Temperatura Precipitaţii Vânt Presiune Umiditate
    00:00 +10°C° 0 mm 2 m/s 746 mmHg 69%
    01:00 +9°C° 0 mm 2 m/s 745 mmHg 72%
    02:00 +9°C° 0 mm 2 m/s 745 mmHg 74%
    03:00 +8°C° 0 mm 2 m/s 745 mmHg 77%
    04:00 +9°C° 0 mm 3 m/s 744 mmHg 77%
    05:00 +9°C° 0 mm 3 m/s 744 mmHg 78%
    06:00 +9°C° 0 mm 3 m/s 744 mmHg 78%
    07:00 +12°C° 0 mm 3 m/s 744 mmHg 72%
    08:00 +14°C° 0 mm 4 m/s 744 mmHg 66%
    09:00 +17°C° 0 mm 5 m/s 744 mmHg 60%
    10:00 +19°C° 0 mm 5 m/s 743 mmHg 57%
    11:00 +20°C° 0 mm 5 m/s 743 mmHg 54%
    12:00 +21°C° 0 mm 5 m/s 742 mmHg 51%
    13:00 +21°C° 0 mm 5 m/s 742 mmHg 53%
    14:00 +21°C° 0 mm 5 m/s 741 mmHg 54%
    15:00 +22°C° 0 mm 4 m/s 741 mmHg 55%
    16:00 +20°C° 0 mm 4 m/s 740 mmHg 60%
    17:00 +18°C° 0 mm 4 m/s 740 mmHg 65%
    18:00 +16°C° 0 mm 3 m/s 740 mmHg 69%
    19:00 +14°C° 0 mm 3 m/s 740 mmHg 70%
    20:00 +13°C° 0 mm 3 m/s 739 mmHg 70%
    21:00 +11°C° 0 mm 3 m/s 739 mmHg 70%
    22:00 +12°C° 0 mm 2 m/s 739 mmHg 72%
    23:00 +10°C° 0 mm 2 m/s 739 mmHg 74%

    Poimâine, 22 Aprilie, Luni

    Timp Temperatura Precipitaţii Vânt Presiune Umiditate
    00:00 +10°C° 0 mm 2 m/s 738 mmHg 76%
    01:00 +9°C° 0 mm 2 m/s 738 mmHg 77%
    02:00 +10°C° 0 mm 1 m/s 738 mmHg 78%
    03:00 +9°C° 0 mm 1 m/s 737 mmHg 79%
    04:00 +10°C° 0 mm 1 m/s 737 mmHg 79%
    05:00 +11°C° 0 mm 1 m/s 736 mmHg 79%
    06:00 +11°C° 0 mm 1 m/s 736 mmHg 79%
    07:00 +13°C° 0 mm 2 m/s 736 mmHg 75%
    08:00 +15°C° 0 mm 2 m/s 735 mmHg 70%
    09:00 +17°C° 0 mm 3 m/s 735 mmHg 66%
    10:00 +18°C° 0 mm 3 m/s 734 mmHg 63%
    11:00 +20°C° 0 mm 4 m/s 734 mmHg 61%
    12:00 +21°C° 0 mm 4 m/s 733 mmHg 59%
    13:00 +21°C° 0 mm 4 m/s 733 mmHg 59%
    14:00 +22°C° 0 mm 4 m/s 732 mmHg 60%
    15:00 +22°C° 0 mm 5 m/s 731 mmHg 61%
    16:00 +20°C° 0 mm 4 m/s 731 mmHg 66%
    17:00 +19°C° 0 mm 4 m/s 730 mmHg 71%
    18:00 +18°C° 0 mm 3 m/s 730 mmHg 76%
    19:00 +17°C° 0 mm 4 m/s 730 mmHg 74%
    20:00 +15°C° 0 mm 4 m/s 730 mmHg 72%
    21:00 +14°C° 0 mm 4 m/s 730 mmHg 70%
    22:00 +13°C° 0 mm 4 m/s 729 mmHg 71%
    23:00 +13°C° 0 mm 4 m/s 729 mmHg 71%

    23 Aprilie, Marţi

    Timp Temperatura Precipitaţii Vânt Presiune Umiditate
    00:00 +12°C° 0 mm 4 m/s 729 mmHg 71%
    01:00 +11°C° 0 mm 4 m/s 729 mmHg 73%
    02:00 +10°C° 0 mm 3 m/s 728 mmHg 75%
    03:00 +9°C° 0 mm 3 m/s 728 mmHg 77%
    04:00 +10°C° 0 mm 3 m/s 728 mmHg 78%
    05:00 +10°C° 0 mm 3 m/s 728 mmHg 80%
    06:00 +10°C° 0 mm 3 m/s 728 mmHg 82%
    07:00 +13°C° 0 mm 2 m/s 728 mmHg 78%
    08:00 +15°C° 0 mm 2 m/s 728 mmHg 74%
    09:00 +17°C° 0 mm 2 m/s 728 mmHg 71%
    10:00 +18°C° 0 mm 2 m/s 728 mmHg 68%
    11:00 +21°C° 0 mm 1 m/s 727 mmHg 65%
    12:00 +22°C° 0 mm 1 m/s 727 mmHg 62%
    13:00 +22°C° 0.2 mm 1 m/s 727 mmHg 64%
    14:00 +22°C° 0.2 mm 1 m/s 727 mmHg 66%
    15:00 +22°C° 0.2 mm 1 m/s 727 mmHg 68%
    16:00 +20°C° 0.2 mm 1 m/s 726 mmHg 73%
    17:00 +19°C° 0.2 mm 1 m/s 726 mmHg 79%
    18:00 +18°C° 0.2 mm 1 m/s 726 mmHg 84%
    19:00 +16°C° 0.2 mm 1 m/s 727 mmHg 86%
    20:00 +15°C° 0.2 mm 2 m/s 727 mmHg 89%
    21:00 +14°C° 0.2 mm 2 m/s 728 mmHg 91%
    22:00 +14°C° 0 mm 2 m/s 728 mmHg 91%
    23:00 +12°C° 0 mm 3 m/s 728 mmHg 91%

    24 Aprilie, Miercuri

    Timp Temperatura Precipitaţii Vânt Presiune Umiditate
    00:00 +12°C° 0 mm 3 m/s 728 mmHg 91%
    01:00 +12°C° 0 mm 3 m/s 729 mmHg 89%
    02:00 +12°C° 0 mm 4 m/s 729 mmHg 87%
    03:00 +12°C° 0 mm 5 m/s 729 mmHg 84%
    04:00 +12°C° 0 mm 5 m/s 730 mmHg 85%
    05:00 +12°C° 0 mm 4 m/s 730 mmHg 86%
    06:00 +12°C° 0 mm 4 m/s 730 mmHg 87%
    07:00 +14°C° 0 mm 5 m/s 731 mmHg 79%
    08:00 +16°C° 0 mm 6 m/s 731 mmHg 72%
    09:00 +18°C° 0 mm 8 m/s 731 mmHg 64%
    10:00 +20°C° 0.1 mm 7 m/s 731 mmHg 62%
    11:00 +20°C° 0.1 mm 7 m/s 731 mmHg 61%
    12:00 +21°C° 0.1 mm 7 m/s 731 mmHg 60%
    13:00 +20°C° 0.9 mm 7 m/s 731 mmHg 67%
    14:00 +19°C° 0.9 mm 6 m/s 731 mmHg 73%
    15:00 +17°C° 0.9 mm 6 m/s 731 mmHg 80%
    16:00 +15°C° 2.9 mm 6 m/s 732 mmHg 85%
    17:00 +11°C° 2.9 mm 6 m/s 733 mmHg 89%
    18:00 +9°C° 2.9 mm 5 m/s 734 mmHg 94%
    19:00 +10°C° 0.1 mm 4 m/s 734 mmHg 94%
    20:00 +9°C° 0.1 mm 3 m/s 735 mmHg 93%
    21:00 +9°C° 0.1 mm 2 m/s 735 mmHg 93%
    22:00 +8°C° 0 mm 3 m/s 735 mmHg 91%
    23:00 +8°C° 0 mm 3 m/s 735 mmHg 90%

    25 Aprilie, Joi

    Timp Temperatura Precipitaţii Vânt Presiune Umiditate
    00:00 +8°C° 0 mm 3 m/s 735 mmHg 89%
    01:00 +8°C° 0 mm 3 m/s 735 mmHg 88%
    02:00 +8°C° 0 mm 3 m/s 735 mmHg 87%
    03:00 +7°C° 0 mm 4 m/s 735 mmHg 87%
    04:00 +7°C° 0 mm 4 m/s 736 mmHg 86%
    05:00 +9°C° 0 mm 3 m/s 736 mmHg 86%
    06:00 +10°C° 0 mm 3 m/s 736 mmHg 85%
    07:00 +12°C° 0 mm 4 m/s 736 mmHg 77%
    08:00 +14°C° 0 mm 5 m/s 736 mmHg 68%
    09:00 +16°C° 0 mm 6 m/s 736 mmHg 60%
    10:00 +16°C° 0 mm 6 m/s 736 mmHg 60%
    11:00 +16°C° 0 mm 5 m/s 736 mmHg 60%
    12:00 +17°C° 0 mm 5 m/s 736 mmHg 60%
    13:00 +15°C° 0.2 mm 5 m/s 736 mmHg 67%
    14:00 +14°C° 0.2 mm 5 m/s 736 mmHg 74%
    15:00 +13°C° 0.2 mm 5 m/s 735 mmHg 81%
    16:00 +12°C° 0.1 mm 4 m/s 736 mmHg 84%
    17:00 +11°C° 0.1 mm 4 m/s 736 mmHg 86%
    18:00 +10°C° 0.1 mm 3 m/s 737 mmHg 89%
    19:00 +10°C° 0.3 mm 3 m/s 737 mmHg 91%
    20:00 +8°C° 0.3 mm 4 m/s 738 mmHg 93%
    21:00 +7°C° 0.3 mm 4 m/s 738 mmHg 95%
    22:00 +7°C° 0.6 mm 4 m/s 739 mmHg 95%
    23:00 +7°C° 0.6 mm 4 m/s 739 mmHg 95%
    Arată mai mult